Regional Weather Roundup
Issued by NWS

Home | Current Version | Previous Version | Text Only | Print | Product List | Glossary Off
Versions: 1 2 3 4 5 6 7 8 9 10 11 12 13 14 15 16 17 18 19 20 21 22 23 24 25 26 27 28 29 30 31 32 33 34 35 36 37 38 39 40 41 42 43 44 45 46 47 48 49 50

000
ASUS43 KDTX 192101
RWRMI
MICHIGAN HOURLY REGIONAL WEATHER ROUNDUP
NATIONAL WEATHER SERVICE DETROIT/PONTIAC MI
500 PM EDT SUN OCT 19 2014

NOTE: "FAIR" INDICATES FEW OR NO CLOUDS BELOW 12,000 FEET WITH NO
SIGNIFICANT WEATHER AND/OR OBSTRUCTION TO VISIBILITY.

MIZ047>049-052>055-059>063-066>070-074>076-081>083-192200-
SOUTHEAST LOWER MICHIGAN

CITY           SKY/WX    TMP DP  RH WIND       PRES   REMARKS
ADRIAN         PTSUNNY   51  33  50 SW8       30.09F
ALMA           CLOUDY    51  36  57 SW9       30.04F
ANN ARBOR      PTSUNNY   52  31  44 SW9       30.07F
CARO           PTSUNNY   49  35  57 SW7       30.04F
DETROIT CITY   PTSUNNY   53  29  39 W9        30.08F
DETROIT        CLOUDY    52  29  41 SW15      30.09F
FLINT          MOSUNNY   53  34  48 W9        30.05F
GROSSE ILE     MOSUNNY   52  32  46 SW9       30.08F
HILLSDALE      PTSUNNY   52  33  49 SW6       30.08F
HOWELL         PTSUNNY   50  34  53 SW6       30.05F

CITY           SKY/WX    TMP DP  RH WIND       PRES   REMARKS
JACKSON        PTSUNNY   51  33  50 SW8       30.07F
LAMBERTVILLE   PTSUNNY   52  28  40 SW7       30.10F
LANSING        PTSUNNY   51  35  54 SW10      30.06F
LAPEER         FAIR      50  32  49 W9        30.06F
MASON          PTSUNNY   51  35  54 W3        30.06F
MONROE         MOSUNNY   52  30  43 SW6       30.08F
MT. CLEMENS    PTSUNNY   51  28  41 SW8       30.05F
PONTIAC        PTSUNNY   51  31  46 SW6       30.05F
PORT HOPE        N/A     48  32  53 SW8       30.03F
PORT HURON     PTSUNNY   50  36  57 S8        30.07F
TRI CITIES     PTSUNNY   52  36  54 SW14      30.04F
TROY           PTSUNNY   53  24  32 SW7       30.09F
SAGINAW HB     PTSUNNY   52  36  54 SW9       30.04F
$$
MIZ043>046-050>051-056>058-064>065-071>073-077>080-192200-
SOUTHWEST LOWER MICHIGAN

CITY           SKY/WX    TMP DP  RH WIND       PRES   REMARKS
BATTLE CREEK   CLOUDY    52  36  54 SW13      30.07F
BENTON HARBOR  CLOUDY    52  37  56 SW8       30.06F
BIG RAPIDS     CLOUDY    49  41  74 SW12G18   30.00F
COLDWATER      PTSUNNY   52  38  58 SW8       30.08F
FREMONT        FAIR      49  38  63 SW9G20    30.02F
HOLLAND        CLOUDY    52  39  61 SW17      30.05F
GRAND RAPIDS   CLOUDY    52  37  56 SW13      30.05F
IONIA          FAIR      52  38  58 SW13      30.04F
KALAMAZOO      CLOUDY    53  36  52 SW12      30.07F
LUDINGTON      CLOUDY    49  43  79 S14G21    29.99F
MARSHALL       CLOUDY    50  36  58 SW9       30.06F
MOUNT PLEASANT CLOUDY    51  37  58 SW10G16   30.02F
MUSKEGON       CLOUDY    51  40  65 S13G25    30.04F
SOUTH HAVEN    CLOUDY    53  40  61 SW7       30.05F
$$
MIZ016>042-192200-
NORTHERN LOWER MICHIGAN

CITY           SKY/WX    TMP DP  RH WIND       PRES   REMARKS
ALPENA         CLOUDY    49  31  49 SW3       29.99F
BEAVER ISLAND  CLOUDY    50  40  67 SW13G21   29.92F
BELLAIRE       CLOUDY    51  37  58 S8        29.96F
CADILLAC       CLOUDY    47  38  70 SW13G18   29.97F
CHARLEVOIX     CLOUDY    51  38  62 S7        29.96F
FRANKFORT      CLOUDY    50  39  66 S14G20    29.95F
GAYLORD        CLOUDY    48  34  58 SW13      29.96F
GRAYLING       CLOUDY    49  35  58 SW7       29.98F
HARBOR SPRINGS CLOUDY    50  37  61 S8        29.95F
HOUGHTON LAKE  CLOUDY    49  36  61 SW10      29.99F
MANISTEE       CLOUDY    50  37  62 S9G17     29.98F
OSCODA         MOSUNNY   50  33  51 SW7       30.00F
PELLSTON       CLOUDY    50  37  61 S9        29.95F
TRAVERSE CITY  CLOUDY    52  36  54 VRB6      29.94F
$$
MIZ007>008-015-192200-
EASTERN UPPER MICHIGAN

CITY           SKY/WX    TMP DP  RH WIND       PRES   REMARKS
KINROSS        CLOUDY    48  39  71 S7        29.93F
MACKINAC ISLAN CLOUDY    49  37  64 SW9       29.94F
NEWBERRY       CLOUDY    46  39  75 SW14G25   29.89F
S. S. MARIE    CLOUDY    46  38  73 SE7       29.92F
MUNISING         N/A     50  39  66 S12G21    29.80F
$$
MIZ004>006-011>014-085-192200-
CENTRAL UPPER MICHIGAN

CITY           SKY/WX    TMP DP  RH WIND       PRES   REMARKS
MANISTIQUE     CLOUDY    49  42  78 S14G23    29.87F
ESCANABA       CLOUDY    50  43  76 S14G21    29.83F
MENOMINEE      CLOUDY    52  41  66 SW17G23   29.83F
SAWYER-GWINN   LGT RAIN  45  41  87 S14       29.79F
$$
MIZ001>003-009>011-084-192200-
WESTERN UPPER MICHIGAN

CITY           SKY/WX    TMP DP  RH WIND       PRES   REMARKS
IRON MOUNTAIN  LGT RAIN  46  40  79 S7        29.80F
HOUGHTON       CLOUDY    47  41  80 S9        29.73F
COPPER HARBOR    N/A     46  42  86 SW8       29.74F
IRONWOOD       MOSUNNY   55  43  62 SW15G22   29.70F
$$

ABBREVIATIONS USED IN REMARKS
   TC - TEMPERATURE IN CELSIUS
  WCI - WIND CHILL INDEX
   HX - HEAT INDEX
  VSB - VISIBILITY



USA.gov is the U.S. government's official web portal to all federal, state and local government web resources and services.